Year,Month,Day,Hour,Minute,Value (Times are PST for temperature in C)
2010,07,27,00,00,17.90
2010,07,27,00,01,17.90
2010,07,27,00,02,17.80
2010,07,27,00,03,17.80
2010,07,27,00,04,17.70
2010,07,27,00,05,17.70
2010,07,27,00,06,17.70
2010,07,27,00,07,17.70
2010,07,27,00,08,17.60
2010,07,27,00,09,17.60
2010,07,27,00,10,17.50
2010,07,27,00,11,17.50
2010,07,27,00,12,17.50
2010,07,27,00,13,17.50
2010,07,27,00,14,17.40
2010,07,27,00,15,17.40
2010,07,27,00,16,17.40
2010,07,27,00,17,17.40
2010,07,27,00,18,17.30
2010,07,27,00,19,17.30
2010,07,27,00,20,17.30
2010,07,27,00,21,17.30
2010,07,27,00,22,17.30
2010,07,27,00,23,17.30
2010,07,27,00,24,17.30
2010,07,27,00,25,17.30
2010,07,27,00,26,17.20
2010,07,27,00,27,17.20
2010,07,27,00,28,17.20
2010,07,27,00,29,17.20
2010,07,27,00,30,17.20
2010,07,27,00,31,17.20
2010,07,27,00,32,17.20
2010,07,27,00,33,17.20
2010,07,27,00,34,17.10
2010,07,27,00,35,17.10
2010,07,27,00,36,17.10
2010,07,27,00,37,17.00
2010,07,27,00,38,17.00
2010,07,27,00,39,17.00
2010,07,27,00,40,17.00
2010,07,27,00,41,16.90
2010,07,27,00,42,16.90
2010,07,27,00,43,16.90
2010,07,27,00,44,16.90
2010,07,27,00,45,16.80
2010,07,27,00,46,16.80
2010,07,27,00,47,16.80
2010,07,27,00,48,16.80
2010,07,27,00,49,16.80
2010,07,27,00,50,16.70
2010,07,27,00,51,16.70
2010,07,27,00,52,16.70
2010,07,27,00,53,16.70
2010,07,27,00,54,16.70
2010,07,27,00,55,16.70
2010,07,27,00,56,16.70
2010,07,27,00,57,16.70
2010,07,27,00,58,16.70
2010,07,27,00,59,16.70
2010,07,27,01,00,16.60
2010,07,27,01,01,16.60
2010,07,27,01,02,16.60
2010,07,27,01,03,16.50
2010,07,27,01,04,16.40
2010,07,27,01,05,16.40
2010,07,27,01,06,16.40
2010,07,27,01,07,16.40
2010,07,27,01,08,16.40
2010,07,27,01,09,16.40
2010,07,27,01,10,16.40
2010,07,27,01,11,16.40
2010,07,27,01,12,16.30
2010,07,27,01,13,16.30
2010,07,27,01,14,16.30
2010,07,27,01,15,16.30
2010,07,27,01,16,16.20
2010,07,27,01,17,16.20
2010,07,27,01,18,16.20
2010,07,27,01,19,16.10
2010,07,27,01,20,16.10
2010,07,27,01,21,16.10
2010,07,27,01,22,16.10
2010,07,27,01,23,16.10
2010,07,27,01,24,16.00
2010,07,27,01,25,15.90
2010,07,27,01,26,15.90
2010,07,27,01,27,15.90
2010,07,27,01,28,15.90
2010,07,27,01,29,15.80
2010,07,27,01,30,15.80
2010,07,27,01,31,15.80
2010,07,27,01,32,15.80
2010,07,27,01,33,15.80
2010,07,27,01,34,15.80
2010,07,27,01,35,15.70
2010,07,27,01,36,15.70
2010,07,27,01,37,15.70
2010,07,27,01,38,15.70
2010,07,27,01,39,15.60
2010,07,27,01,40,15.60
2010,07,27,01,41,15.60
2010,07,27,01,42,15.50
2010,07,27,01,43,15.50
2010,07,27,01,44,15.50
2010,07,27,01,45,15.50
2010,07,27,01,46,15.50
2010,07,27,01,47,15.40
2010,07,27,01,48,15.40
2010,07,27,01,49,15.40
2010,07,27,01,50,15.40
2010,07,27,01,51,15.30
2010,07,27,01,52,15.30
2010,07,27,01,53,15.30
2010,07,27,01,54,15.30
2010,07,27,01,55,15.30
2010,07,27,01,56,15.30
2010,07,27,01,57,15.30
2010,07,27,01,58,15.30
2010,07,27,01,59,15.30
2010,07,27,02,00,15.30
2010,07,27,02,01,15.30
2010,07,27,02,02,15.30
2010,07,27,02,03,15.30
2010,07,27,02,04,15.20
2010,07,27,02,05,15.20
2010,07,27,02,06,15.20
2010,07,27,02,07,15.20
2010,07,27,02,08,15.20
2010,07,27,02,09,15.20
2010,07,27,02,10,15.20
2010,07,27,02,11,15.20
2010,07,27,02,12,15.20
2010,07,27,02,13,15.20
2010,07,27,02,14,15.10
2010,07,27,02,15,15.10
2010,07,27,02,16,15.10
2010,07,27,02,17,15.10
2010,07,27,02,18,15.10
2010,07,27,02,19,15.10
2010,07,27,02,20,15.00
2010,07,27,02,21,15.00
2010,07,27,02,22,15.00
2010,07,27,02,23,15.00
2010,07,27,02,24,15.00
2010,07,27,02,25,15.00
2010,07,27,02,26,14.90
2010,07,27,02,27,14.90
2010,07,27,02,28,14.90
2010,07,27,02,29,14.90
2010,07,27,02,30,14.90
2010,07,27,02,31,14.90
2010,07,27,02,32,14.90
2010,07,27,02,33,14.90
2010,07,27,02,34,14.90
2010,07,27,02,35,14.90
2010,07,27,02,36,14.90
2010,07,27,02,37,14.80
2010,07,27,02,38,14.80
2010,07,27,02,39,14.80
2010,07,27,02,40,14.80
2010,07,27,02,41,14.80
2010,07,27,02,42,14.80
2010,07,27,02,43,14.80
2010,07,27,02,44,14.80
2010,07,27,02,45,14.70
2010,07,27,02,46,14.70
2010,07,27,02,47,14.70
2010,07,27,02,48,14.70
2010,07,27,02,49,14.60
2010,07,27,02,50,14.60
2010,07,27,02,51,14.60
2010,07,27,02,52,14.60
2010,07,27,02,53,14.60
2010,07,27,02,54,14.60
2010,07,27,02,55,14.50
2010,07,27,02,56,14.50
2010,07,27,02,57,14.50
2010,07,27,02,58,14.40
2010,07,27,02,59,14.40
2010,07,27,03,00,14.40
2010,07,27,03,01,14.30
2010,07,27,03,02,14.30
2010,07,27,03,03,14.30
2010,07,27,03,04,14.20
2010,07,27,03,05,14.20
2010,07,27,03,06,14.20
2010,07,27,03,07,14.20
2010,07,27,03,08,14.20
2010,07,27,03,09,14.20
2010,07,27,03,10,14.10
2010,07,27,03,11,14.10
2010,07,27,03,12,14.10
2010,07,27,03,13,14.00
2010,07,27,03,14,14.00
2010,07,27,03,15,14.00
2010,07,27,03,16,14.00
2010,07,27,03,17,14.00
2010,07,27,03,18,14.00
2010,07,27,03,19,14.00
2010,07,27,03,20,13.90
2010,07,27,03,21,13.90
2010,07,27,03,22,13.90
2010,07,27,03,23,13.90
2010,07,27,03,24,13.90
2010,07,27,03,25,13.90
2010,07,27,03,26,13.90
2010,07,27,03,27,13.90
2010,07,27,03,28,13.90
2010,07,27,03,29,13.90
2010,07,27,03,30,13.90
2010,07,27,03,31,13.90
2010,07,27,03,32,13.80
2010,07,27,03,33,13.80
2010,07,27,03,34,13.80
2010,07,27,03,35,13.80
2010,07,27,03,36,13.80
2010,07,27,03,37,13.80
2010,07,27,03,38,13.80
2010,07,27,03,39,13.80
2010,07,27,03,40,13.80
2010,07,27,03,41,13.80
2010,07,27,03,42,13.80
2010,07,27,03,43,13.80
2010,07,27,03,44,13.80
2010,07,27,03,45,13.80
2010,07,27,03,46,13.80
2010,07,27,03,47,13.80
2010,07,27,03,48,13.80
2010,07,27,03,49,13.80
2010,07,27,03,50,13.80
2010,07,27,03,51,13.80
2010,07,27,03,52,13.80
2010,07,27,03,53,13.80
2010,07,27,03,54,13.80
2010,07,27,03,55,13.80
2010,07,27,03,56,13.80
2010,07,27,03,57,13.80
2010,07,27,03,58,13.80
2010,07,27,03,59,13.80
2010,07,27,04,00,13.80
2010,07,27,04,01,13.80
2010,07,27,04,02,13.80
2010,07,27,04,03,13.80
2010,07,27,04,04,13.80
2010,07,27,04,05,13.80
2010,07,27,04,06,13.80
2010,07,27,04,07,13.80
2010,07,27,04,08,13.90
2010,07,27,04,09,13.90
2010,07,27,04,10,13.90
2010,07,27,04,11,13.90
2010,07,27,04,12,13.90
2010,07,27,04,13,13.90
2010,07,27,04,14,13.90
2010,07,27,04,15,13.90
2010,07,27,04,16,13.90
2010,07,27,04,17,13.90
2010,07,27,04,18,13.90
2010,07,27,04,19,13.90
2010,07,27,04,20,13.90
2010,07,27,04,21,13.90
2010,07,27,04,22,13.90
2010,07,27,04,23,13.90
2010,07,27,04,24,13.90
2010,07,27,04,25,13.90
2010,07,27,04,26,13.90
2010,07,27,04,27,13.90
2010,07,27,04,28,13.90
2010,07,27,04,29,13.90
2010,07,27,04,30,13.90
2010,07,27,04,31,13.90
2010,07,27,04,32,13.90
2010,07,27,04,33,13.90
2010,07,27,04,34,13.90
2010,07,27,04,35,13.90
2010,07,27,04,36,13.80
2010,07,27,04,37,13.80
2010,07,27,04,38,13.80
2010,07,27,04,39,13.70
2010,07,27,04,40,13.70
2010,07,27,04,41,13.70
2010,07,27,04,42,13.70
2010,07,27,04,43,13.70
2010,07,27,04,44,13.60
2010,07,27,04,45,13.60
2010,07,27,04,46,13.60
2010,07,27,04,47,13.60
2010,07,27,04,48,13.50
2010,07,27,04,49,13.50
2010,07,27,04,50,13.50
2010,07,27,04,51,13.40
2010,07,27,04,52,13.40
2010,07,27,04,53,13.40
2010,07,27,04,54,13.40
2010,07,27,04,55,13.30
2010,07,27,04,56,13.30
2010,07,27,04,57,13.30
2010,07,27,04,58,13.30
2010,07,27,04,59,13.30
2010,07,27,05,00,13.30
2010,07,27,05,01,13.30
2010,07,27,05,02,13.30
2010,07,27,05,03,13.20
2010,07,27,05,04,13.20
2010,07,27,05,05,13.20
2010,07,27,05,06,13.20
2010,07,27,05,07,13.20
2010,07,27,05,08,13.10
2010,07,27,05,09,13.10
2010,07,27,05,10,13.10
2010,07,27,05,11,13.10
2010,07,27,05,12,13.10
2010,07,27,05,13,13.10
2010,07,27,05,14,13.10
2010,07,27,05,15,13.00
2010,07,27,05,16,13.00
2010,07,27,05,17,13.00
2010,07,27,05,18,13.00
2010,07,27,05,19,13.00
2010,07,27,05,20,13.00
2010,07,27,05,21,13.00
2010,07,27,05,22,12.90
2010,07,27,05,23,12.90
2010,07,27,05,24,12.90
2010,07,27,05,25,12.90
2010,07,27,05,26,12.90
2010,07,27,05,27,12.90
2010,07,27,05,28,12.90
2010,07,27,05,29,12.90
2010,07,27,05,30,12.80
2010,07,27,05,31,12.80
2010,07,27,05,32,12.80
2010,07,27,05,33,12.80
2010,07,27,05,34,12.80
2010,07,27,05,35,12.80
2010,07,27,05,36,12.80
2010,07,27,05,37,12.80
2010,07,27,05,38,12.80
2010,07,27,05,39,12.80
2010,07,27,05,40,12.80
2010,07,27,05,41,12.70
2010,07,27,05,42,12.70
2010,07,27,05,43,12.70
2010,07,27,05,44,12.70
2010,07,27,05,45,12.60
2010,07,27,05,46,12.60
2010,07,27,05,47,12.60
2010,07,27,05,48,12.60
2010,07,27,05,49,12.60
2010,07,27,05,50,12.60
2010,07,27,05,51,12.50
2010,07,27,05,52,12.50
2010,07,27,05,53,12.50
2010,07,27,05,54,12.50
2010,07,27,05,55,12.50
2010,07,27,05,56,12.50
2010,07,27,05,57,12.50
2010,07,27,05,58,12.50
2010,07,27,05,59,12.50
2010,07,27,06,00,12.50
2010,07,27,06,01,12.50
2010,07,27,06,02,12.50
2010,07,27,06,03,12.50
2010,07,27,06,04,12.50
2010,07,27,06,05,12.50
2010,07,27,06,06,12.50
2010,07,27,06,07,12.50
2010,07,27,06,08,12.50
2010,07,27,06,09,12.50
2010,07,27,06,10,12.60
2010,07,27,06,11,12.60
2010,07,27,06,12,12.60
2010,07,27,06,13,12.60
2010,07,27,06,14,12.60
2010,07,27,06,15,12.60
2010,07,27,06,16,12.60
2010,07,27,06,17,12.60
2010,07,27,06,18,12.70
2010,07,27,06,19,12.70
2010,07,27,06,20,12.70
2010,07,27,06,21,12.70
2010,07,27,06,22,12.80
2010,07,27,06,23,12.80
2010,07,27,06,24,12.80
2010,07,27,06,25,12.80
2010,07,27,06,26,12.80
2010,07,27,06,27,12.80
2010,07,27,06,28,12.90
2010,07,27,06,29,12.90
2010,07,27,06,30,12.90
2010,07,27,06,31,13.00
2010,07,27,06,32,13.00
2010,07,27,06,33,13.10
2010,07,27,06,34,13.20
2010,07,27,06,35,13.20
2010,07,27,06,36,13.30
2010,07,27,06,37,13.30
2010,07,27,06,38,13.40
2010,07,27,06,39,13.50
2010,07,27,06,40,13.50
2010,07,27,06,41,13.60
2010,07,27,06,42,13.60
2010,07,27,06,43,13.70
2010,07,27,06,44,13.70
2010,07,27,06,45,13.70
2010,07,27,06,46,13.80
2010,07,27,06,47,13.90
2010,07,27,06,48,13.90
2010,07,27,06,49,14.00
2010,07,27,06,50,14.00
2010,07,27,06,51,14.10
2010,07,27,06,52,14.20
2010,07,27,06,53,14.20
2010,07,27,06,54,14.30
2010,07,27,06,55,14.40
2010,07,27,06,56,14.50
2010,07,27,06,57,14.60
2010,07,27,06,58,14.70
2010,07,27,06,59,14.70
2010,07,27,07,00,14.80
2010,07,27,07,01,14.80
2010,07,27,07,02,14.90
2010,07,27,07,03,15.00
2010,07,27,07,04,15.10
2010,07,27,07,05,15.10
2010,07,27,07,06,15.20
2010,07,27,07,07,15.30
2010,07,27,07,08,15.40
2010,07,27,07,09,15.40
2010,07,27,07,10,15.50
2010,07,27,07,11,15.60
2010,07,27,07,12,15.70
2010,07,27,07,13,15.70
2010,07,27,07,14,15.80
2010,07,27,07,15,15.90
2010,07,27,07,16,16.00
2010,07,27,07,17,16.10
2010,07,27,07,18,16.10
2010,07,27,07,19,16.20
2010,07,27,07,20,16.20
2010,07,27,07,21,16.30
2010,07,27,07,22,16.40
2010,07,27,07,23,16.40
2010,07,27,07,24,16.50
2010,07,27,07,25,16.60
2010,07,27,07,26,16.70
2010,07,27,07,27,16.70
2010,07,27,07,28,16.80
2010,07,27,07,29,16.90
2010,07,27,07,30,16.90
2010,07,27,07,31,17.00
2010,07,27,07,32,17.10
2010,07,27,07,33,17.10
2010,07,27,07,34,17.20
2010,07,27,07,35,17.20
2010,07,27,07,36,17.30
2010,07,27,07,37,17.30
2010,07,27,07,38,17.20
2010,07,27,07,39,17.20
2010,07,27,07,40,17.10
2010,07,27,07,41,17.00
2010,07,27,07,42,16.90
2010,07,27,07,43,16.90
2010,07,27,07,44,16.90
2010,07,27,07,45,17.00
2010,07,27,07,46,17.00
2010,07,27,07,47,17.10
2010,07,27,07,48,17.20
2010,07,27,07,49,17.30
2010,07,27,07,50,17.30
2010,07,27,07,51,17.40
2010,07,27,07,52,17.50
2010,07,27,07,53,17.60
2010,07,27,07,54,17.70
2010,07,27,07,55,17.80
2010,07,27,07,56,17.80
2010,07,27,07,57,17.90
2010,07,27,07,58,17.90
2010,07,27,07,59,17.90
2010,07,27,08,00,18.00
2010,07,27,08,01,18.10
2010,07,27,08,02,18.10
2010,07,27,08,03,18.10
2010,07,27,08,04,18.20
2010,07,27,08,05,18.20
2010,07,27,08,06,18.30
2010,07,27,08,07,18.30
2010,07,27,08,08,18.40
2010,07,27,08,09,18.40
2010,07,27,08,10,18.50
2010,07,27,08,11,18.50
2010,07,27,08,12,18.50
2010,07,27,08,13,18.60
2010,07,27,08,14,18.60
2010,07,27,08,15,18.70
2010,07,27,08,16,18.70
2010,07,27,08,17,18.70
2010,07,27,08,18,18.80
2010,07,27,08,19,18.90
2010,07,27,08,20,18.90
2010,07,27,08,21,18.90
2010,07,27,08,22,19.00
2010,07,27,08,23,19.10
2010,07,27,08,24,19.10
2010,07,27,08,25,19.10
2010,07,27,08,26,19.10
2010,07,27,08,27,19.10
2010,07,27,08,28,19.10
2010,07,27,08,29,19.20
2010,07,27,08,30,19.20
2010,07,27,08,31,19.20
2010,07,27,08,32,19.10
2010,07,27,08,33,18.90
2010,07,27,08,34,18.80
2010,07,27,08,35,18.80
2010,07,27,08,36,18.80
2010,07,27,08,37,18.70
2010,07,27,08,38,18.70
2010,07,27,08,39,18.80
2010,07,27,08,40,18.80
2010,07,27,08,41,18.90
2010,07,27,08,42,18.90
2010,07,27,08,43,19.00
2010,07,27,08,44,19.10
2010,07,27,08,45,19.10
2010,07,27,08,46,19.20
2010,07,27,08,47,19.00
2010,07,27,08,48,18.80
2010,07,27,08,49,18.70
2010,07,27,08,50,18.60
2010,07,27,08,51,18.60
2010,07,27,08,52,18.60
2010,07,27,08,53,18.60
2010,07,27,08,54,18.60
2010,07,27,08,55,18.70
2010,07,27,08,56,18.80
2010,07,27,08,57,18.80
2010,07,27,08,58,18.90
2010,07,27,08,59,18.90
2010,07,27,09,00,18.90
2010,07,27,09,01,18.80
2010,07,27,09,02,18.80
2010,07,27,09,03,18.90
2010,07,27,09,04,18.90
2010,07,27,09,05,19.00
2010,07,27,09,06,19.10
2010,07,27,09,07,19.10
2010,07,27,09,08,19.10
2010,07,27,09,09,19.10
2010,07,27,09,10,19.10
2010,07,27,09,11,19.10
2010,07,27,09,12,19.20
2010,07,27,09,13,19.30
2010,07,27,09,14,19.30
2010,07,27,09,15,19.40
2010,07,27,09,16,19.50
2010,07,27,09,17,19.60
2010,07,27,09,18,19.70
2010,07,27,09,19,19.80
2010,07,27,09,20,19.80
2010,07,27,09,21,19.90
2010,07,27,09,22,20.00
2010,07,27,09,23,20.10
2010,07,27,09,24,20.10
2010,07,27,09,25,20.20
2010,07,27,09,26,20.20
2010,07,27,09,27,20.20
2010,07,27,09,28,20.20
2010,07,27,09,29,20.20
2010,07,27,09,30,20.20
2010,07,27,09,31,20.20
2010,07,27,09,32,20.20
2010,07,27,09,33,20.20
2010,07,27,09,34,20.20
2010,07,27,09,35,20.20
2010,07,27,09,36,20.20
2010,07,27,09,37,20.20
2010,07,27,09,38,20.20
2010,07,27,09,39,20.30
2010,07,27,09,40,20.30
2010,07,27,09,41,20.20
2010,07,27,09,42,20.20
2010,07,27,09,43,20.20
2010,07,27,09,44,20.20
2010,07,27,09,45,20.20
2010,07,27,09,46,20.20
2010,07,27,09,47,20.20
2010,07,27,09,48,20.20
2010,07,27,09,49,20.20
2010,07,27,09,50,20.30
2010,07,27,09,51,20.40
2010,07,27,09,52,20.50
2010,07,27,09,53,20.60
2010,07,27,09,54,20.70
2010,07,27,09,55,20.80
2010,07,27,09,56,20.90
2010,07,27,09,57,20.90
2010,07,27,09,58,21.00
2010,07,27,09,59,21.00
2010,07,27,10,00,21.00
2010,07,27,10,01,20.90
2010,07,27,10,02,20.80
2010,07,27,10,03,20.80
2010,07,27,10,04,20.90
2010,07,27,10,05,20.80
2010,07,27,10,06,20.60
2010,07,27,10,07,20.60
2010,07,27,10,08,20.50
2010,07,27,10,09,20.60
2010,07,27,10,10,20.60
2010,07,27,10,11,20.60
2010,07,27,10,12,20.60
2010,07,27,10,13,20.70
2010,07,27,10,14,20.70
2010,07,27,10,15,20.80
2010,07,27,10,16,20.80
2010,07,27,10,17,20.90
2010,07,27,10,18,20.90
2010,07,27,10,19,20.80
2010,07,27,10,20,20.80
2010,07,27,10,21,20.80
2010,07,27,10,22,20.70
2010,07,27,10,23,20.50
2010,07,27,10,24,20.40
2010,07,27,10,25,20.40
2010,07,27,10,26,20.30
2010,07,27,10,27,20.30
2010,07,27,10,28,20.30
2010,07,27,10,29,20.30
2010,07,27,10,30,20.20
2010,07,27,10,31,20.20
2010,07,27,10,32,20.20
2010,07,27,10,33,20.20
2010,07,27,10,34,20.20
2010,07,27,10,35,20.30
2010,07,27,10,36,20.20
2010,07,27,10,37,20.10
2010,07,27,10,38,20.20
2010,07,27,10,39,20.20
2010,07,27,10,40,20.20
2010,07,27,10,41,20.20
2010,07,27,10,42,20.20
2010,07,27,10,43,20.20
2010,07,27,10,44,20.40
2010,07,27,10,45,20.40
2010,07,27,10,46,20.50
2010,07,27,10,47,20.50
2010,07,27,10,48,20.30
2010,07,27,10,49,20.20
2010,07,27,10,50,20.20
2010,07,27,10,51,20.10
2010,07,27,10,52,19.90
2010,07,27,10,53,19.80
2010,07,27,10,54,19.60
2010,07,27,10,55,19.40
2010,07,27,10,56,19.00
2010,07,27,10,57,18.80
2010,07,27,10,58,18.60
2010,07,27,10,59,18.50
2010,07,27,11,00,18.40
2010,07,27,11,01,18.50
2010,07,27,11,02,18.60
2010,07,27,11,03,18.70
2010,07,27,11,04,18.80
2010,07,27,11,05,18.90
2010,07,27,11,06,19.00
2010,07,27,11,07,19.10
2010,07,27,11,08,18.90
2010,07,27,11,09,18.70
2010,07,27,11,10,18.50
2010,07,27,11,11,18.40
2010,07,27,11,12,18.40
2010,07,27,11,13,18.30
2010,07,27,11,14,18.20
2010,07,27,11,15,18.30
2010,07,27,11,16,18.40
2010,07,27,11,17,18.60
2010,07,27,11,18,18.70
2010,07,27,11,19,18.90
2010,07,27,11,20,19.00
2010,07,27,11,21,19.20
2010,07,27,11,22,19.40
2010,07,27,11,23,19.60
2010,07,27,11,24,19.90
2010,07,27,11,25,20.00
2010,07,27,11,26,20.10
2010,07,27,11,27,20.10
2010,07,27,11,28,20.10
2010,07,27,11,29,20.20
2010,07,27,11,30,20.20
2010,07,27,11,31,20.20
2010,07,27,11,32,20.30
2010,07,27,11,33,20.30
2010,07,27,11,34,20.30
2010,07,27,11,35,20.20
2010,07,27,11,36,20.20
2010,07,27,11,37,20.00
2010,07,27,11,38,19.90
2010,07,27,11,39,19.80
2010,07,27,11,40,19.80
2010,07,27,11,41,19.80
2010,07,27,11,42,19.80
2010,07,27,11,43,19.60
2010,07,27,11,44,19.60
2010,07,27,11,45,19.60
2010,07,27,11,46,19.70
2010,07,27,11,47,19.80
2010,07,27,11,48,19.80
2010,07,27,11,49,19.90
2010,07,27,11,50,19.90
2010,07,27,11,51,19.90
2010,07,27,11,52,19.90
2010,07,27,11,53,20.00
2010,07,27,11,54,20.20
2010,07,27,11,55,20.20
2010,07,27,11,56,20.20
2010,07,27,11,57,20.20
2010,07,27,11,58,20.20
2010,07,27,11,59,20.20
2010,07,27,12,00,20.10
2010,07,27,12,01,20.20
2010,07,27,12,02,20.20
2010,07,27,12,03,20.20
2010,07,27,12,04,20.40
2010,07,27,12,05,20.40
2010,07,27,12,06,20.50
2010,07,27,12,07,20.60
2010,07,27,12,08,20.70
2010,07,27,12,09,20.70
2010,07,27,12,10,20.80
2010,07,27,12,11,20.90
2010,07,27,12,12,20.90
2010,07,27,12,13,21.00
2010,07,27,12,14,21.20
2010,07,27,12,15,21.30
2010,07,27,12,16,21.40
2010,07,27,12,17,21.40
2010,07,27,12,18,21.60
2010,07,27,12,19,21.70
2010,07,27,12,20,21.80
2010,07,27,12,21,21.90
2010,07,27,12,22,22.00
2010,07,27,12,23,22.10
2010,07,27,12,24,22.20
2010,07,27,12,25,22.30
2010,07,27,12,26,22.40
2010,07,27,12,27,22.50
2010,07,27,12,28,22.40
2010,07,27,12,29,22.20
2010,07,27,12,30,22.10
2010,07,27,12,31,22.00
2010,07,27,12,32,22.00
2010,07,27,12,33,22.00
2010,07,27,12,34,21.80
2010,07,27,12,35,21.60
2010,07,27,12,36,21.30
2010,07,27,12,37,21.30
2010,07,27,12,38,21.30
2010,07,27,12,39,21.30
2010,07,27,12,40,21.10
2010,07,27,12,41,21.10
2010,07,27,12,42,21.20
2010,07,27,12,43,21.30
2010,07,27,12,44,21.30
2010,07,27,12,45,21.20
2010,07,27,12,46,21.10
2010,07,27,12,47,21.00
2010,07,27,12,48,21.00
2010,07,27,12,49,21.00
2010,07,27,12,50,21.00
2010,07,27,12,51,21.00
2010,07,27,12,52,21.10
2010,07,27,12,53,21.20
2010,07,27,12,54,21.40
2010,07,27,12,55,21.60
2010,07,27,12,56,21.80
2010,07,27,12,57,22.00
2010,07,27,12,58,22.10
2010,07,27,12,59,22.20
2010,07,27,13,00,22.20
2010,07,27,13,01,22.20
2010,07,27,13,02,22.30
2010,07,27,13,03,22.40
2010,07,27,13,04,22.30
2010,07,27,13,05,22.30
2010,07,27,13,06,22.20
2010,07,27,13,07,22.20
2010,07,27,13,08,22.20
2010,07,27,13,09,22.30
2010,07,27,13,10,22.40
2010,07,27,13,11,22.50
2010,07,27,13,12,22.60
2010,07,27,13,13,22.60
2010,07,27,13,14,22.60
2010,07,27,13,15,22.60
2010,07,27,13,16,22.60
2010,07,27,13,17,22.70
2010,07,27,13,18,22.70
2010,07,27,13,19,22.80
2010,07,27,13,20,22.90
2010,07,27,13,21,23.10
2010,07,27,13,22,23.20
2010,07,27,13,23,23.20
2010,07,27,13,24,23.20
2010,07,27,13,25,23.30
2010,07,27,13,26,23.30
2010,07,27,13,27,23.40
2010,07,27,13,28,23.50
2010,07,27,13,29,23.60
2010,07,27,13,30,23.60
2010,07,27,13,31,23.60
2010,07,27,13,32,23.40
2010,07,27,13,33,23.40
2010,07,27,13,34,23.40
2010,07,27,13,35,23.40
2010,07,27,13,36,23.20
2010,07,27,13,37,23.00
2010,07,27,13,38,22.90
2010,07,27,13,39,22.70
2010,07,27,13,40,22.60
2010,07,27,13,41,22.60
2010,07,27,13,42,22.60
2010,07,27,13,43,22.70
2010,07,27,13,44,22.80
2010,07,27,13,45,23.00
2010,07,27,13,46,23.10
2010,07,27,13,47,23.20
2010,07,27,13,48,23.30
2010,07,27,13,49,23.50
2010,07,27,13,50,23.70
2010,07,27,13,51,23.70
2010,07,27,13,52,23.70
2010,07,27,13,53,23.70
2010,07,27,13,54,23.70
2010,07,27,13,55,23.70
2010,07,27,13,56,23.70
2010,07,27,13,57,23.70
2010,07,27,13,58,23.70
2010,07,27,13,59,23.80
2010,07,27,14,00,23.80
2010,07,27,14,01,23.80
2010,07,27,14,02,23.80
2010,07,27,14,03,23.80
2010,07,27,14,04,23.80
2010,07,27,14,05,23.90
2010,07,27,14,06,24.10
2010,07,27,14,07,24.20
2010,07,27,14,08,24.20
2010,07,27,14,09,24.20
2010,07,27,14,10,24.30
2010,07,27,14,11,24.30
2010,07,27,14,12,24.40
2010,07,27,14,13,24.50
2010,07,27,14,14,24.50
2010,07,27,14,15,24.70
2010,07,27,14,16,24.70
2010,07,27,14,17,24.80
2010,07,27,14,18,24.90
2010,07,27,14,19,24.90
2010,07,27,14,20,25.00
2010,07,27,14,21,25.10
2010,07,27,14,22,25.20
2010,07,27,14,23,25.20
2010,07,27,14,24,25.20
2010,07,27,14,25,25.20
2010,07,27,14,26,25.20
2010,07,27,14,27,25.30
2010,07,27,14,28,25.40
2010,07,27,14,29,25.60
2010,07,27,14,30,25.70
2010,07,27,14,31,25.90
2010,07,27,14,32,26.00
2010,07,27,14,33,26.20
2010,07,27,14,34,26.50
2010,07,27,14,35,26.70
2010,07,27,14,36,26.70
2010,07,27,14,37,26.70
2010,07,27,14,38,26.70
2010,07,27,14,39,26.60
2010,07,27,14,40,26.50
2010,07,27,14,41,26.30
2010,07,27,14,42,26.00
2010,07,27,14,43,25.90
2010,07,27,14,44,25.90
2010,07,27,14,45,25.80
2010,07,27,14,46,25.70
2010,07,27,14,47,25.70
2010,07,27,14,48,25.70
2010,07,27,14,49,25.70
2010,07,27,14,50,25.70
2010,07,27,14,51,25.80
2010,07,27,14,52,25.90
2010,07,27,14,53,26.00
2010,07,27,14,54,26.00
2010,07,27,14,55,25.90
2010,07,27,14,56,25.90
2010,07,27,14,57,25.90
2010,07,27,14,58,25.90
2010,07,27,14,59,25.70
2010,07,27,15,00,25.80
2010,07,27,15,01,25.90
2010,07,27,15,02,26.00
2010,07,27,15,03,26.20
2010,07,27,15,04,26.20
2010,07,27,15,05,26.20
2010,07,27,15,06,26.20
2010,07,27,15,07,26.30
2010,07,27,15,08,26.30
2010,07,27,15,09,26.30
2010,07,27,15,10,26.40
2010,07,27,15,11,26.50
2010,07,27,15,12,26.50
2010,07,27,15,13,26.30
2010,07,27,15,14,26.30
2010,07,27,15,15,26.30
2010,07,27,15,16,26.40
2010,07,27,15,17,26.50
2010,07,27,15,18,26.60
2010,07,27,15,19,26.80
2010,07,27,15,20,27.00
2010,07,27,15,21,27.10
2010,07,27,15,22,27.20
2010,07,27,15,23,27.20
2010,07,27,15,24,27.30
2010,07,27,15,25,27.30
2010,07,27,15,26,27.40
2010,07,27,15,27,27.40
2010,07,27,15,28,27.60
2010,07,27,15,29,27.60
2010,07,27,15,30,27.60
2010,07,27,15,31,27.60
2010,07,27,15,32,27.50
2010,07,27,15,33,27.40
2010,07,27,15,34,27.40
2010,07,27,15,35,27.60
2010,07,27,15,36,27.60
2010,07,27,15,37,27.80
2010,07,27,15,38,27.90
2010,07,27,15,39,27.80
2010,07,27,15,40,27.70
2010,07,27,15,41,27.70
2010,07,27,15,42,27.80
2010,07,27,15,43,27.70
2010,07,27,15,44,27.70
2010,07,27,15,45,27.60
2010,07,27,15,46,27.60
2010,07,27,15,47,27.50
2010,07,27,15,48,27.40
2010,07,27,15,49,27.30
2010,07,27,15,50,27.20
2010,07,27,15,51,27.20
2010,07,27,15,52,27.20
2010,07,27,15,53,27.10
2010,07,27,15,54,27.10
2010,07,27,15,55,27.10
2010,07,27,15,56,27.10
2010,07,27,15,57,27.00
2010,07,27,15,58,26.90
2010,07,27,15,59,26.80
2010,07,27,16,00,26.70
2010,07,27,16,01,26.70
2010,07,27,16,02,26.60
2010,07,27,16,03,26.70
2010,07,27,16,04,26.70
2010,07,27,16,05,26.70
2010,07,27,16,06,26.70
2010,07,27,16,07,26.70
2010,07,27,16,08,26.60
2010,07,27,16,09,26.60
2010,07,27,16,10,26.60
2010,07,27,16,11,26.40
2010,07,27,16,12,26.40
2010,07,27,16,13,26.40
2010,07,27,16,14,26.40
2010,07,27,16,15,26.20
2010,07,27,16,16,26.10
2010,07,27,16,17,26.00
2010,07,27,16,18,25.90
2010,07,27,16,19,25.80
2010,07,27,16,20,25.90
2010,07,27,16,21,26.10
2010,07,27,16,22,26.30
2010,07,27,16,23,26.40
2010,07,27,16,24,26.60
2010,07,27,16,25,26.60
2010,07,27,16,26,26.70
2010,07,27,16,27,26.70
2010,07,27,16,28,26.70
2010,07,27,16,29,26.70
2010,07,27,16,30,26.70
2010,07,27,16,31,26.70
2010,07,27,16,32,26.70
2010,07,27,16,33,26.60
2010,07,27,16,34,26.60
2010,07,27,16,35,26.70
2010,07,27,16,36,26.80
2010,07,27,16,37,26.80
2010,07,27,16,38,26.80
2010,07,27,16,39,26.70
2010,07,27,16,40,26.70
2010,07,27,16,41,26.60
2010,07,27,16,42,26.60
2010,07,27,16,43,26.60
2010,07,27,16,44,26.60
2010,07,27,16,45,26.60
2010,07,27,16,46,26.60
2010,07,27,16,47,26.60
2010,07,27,16,48,26.70
2010,07,27,16,49,26.60
2010,07,27,16,50,26.60
2010,07,27,16,51,26.60
2010,07,27,16,52,26.60
2010,07,27,16,53,26.50
2010,07,27,16,54,26.50
2010,07,27,16,55,26.60
2010,07,27,16,56,26.70
2010,07,27,16,57,26.80
2010,07,27,16,58,26.90
2010,07,27,16,59,27.10
2010,07,27,17,00,27.20
2010,07,27,17,01,27.20
2010,07,27,17,02,27.20
2010,07,27,17,03,27.20
2010,07,27,17,04,27.20
2010,07,27,17,05,27.20
2010,07,27,17,06,27.10
2010,07,27,17,07,27.20
2010,07,27,17,08,27.20
2010,07,27,17,09,27.30
2010,07,27,17,10,27.30
2010,07,27,17,11,27.30
2010,07,27,17,12,27.30
2010,07,27,17,13,27.30
2010,07,27,17,14,27.30
2010,07,27,17,15,27.30
2010,07,27,17,16,27.30
2010,07,27,17,17,27.40
2010,07,27,17,18,27.40
2010,07,27,17,19,27.40